| time (UTC) | temp F | wind direction | speed MPH | gust MPH | rain 1hr in | rain 24hr in | rain mn in | humidity % | barometer mb |
| 20260503044609 | 35 | 336 | 0.0 | 2.0 | 0.00 | 0.00 | 0.00 | 86 | 1018.4 |
| 20260503043105 | 36 | 336 | 0.0 | 2.0 | 0.00 | 0.00 | 0.00 | 87 | 1018.3 |
| 20260503041553 | 36 | 336 | 0.0 | 0.0 | 0.00 | 0.00 | 0.00 | 86 | 1018.3 |
| 20260503040051 | 37 | 336 | 0.0 | 1.0 | 0.00 | 0.00 | 0.00 | 87 | 1018.3 |
| 20260503034550 | 37 | 336 | 0.0 | 0.0 | 0.00 | 0.00 | 0.00 | 87 | 1018.4 |
| 20260503033103 | 38 | 336 | 0.0 | 2.0 | 0.00 | 0.00 | 0.00 | 88 | 1018.4 |
| 20260503031549 | 38 | 336 | 0.0 | 0.0 | 0.00 | 0.00 | 0.00 | 87 | 1018.5 |
| 20260503030048 | 38 | 336 | 0.0 | 1.0 | 0.00 | 0.00 | 0.00 | 87 | 1018.6 |
| 20260503024548 | 38 | 336 | 0.0 | 0.0 | 0.00 | 0.00 | 0.00 | 85 | 1018.6 |
| 20260503023058 | 38 | 336 | 0.0 | 0.0 | 0.00 | 0.00 | 0.00 | 84 | 1018.7 |
| 20260503021551 | 38 | 336 | 0.0 | 0.0 | 0.00 | 0.00 | 0.00 | 85 | 1018.7 |
| 20260503020046 | 38 | 336 | 0.0 | 0.0 | 0.00 | 0.00 | 0.00 | 80 | 1018.7 |
| 20260503014546 | 39 | 336 | 0.0 | 1.0 | 0.00 | 0.00 | 0.00 | 74 | 1018.5 |
| 20260503013045 | 40 | 336 | 0.0 | 0.0 | 0.00 | 0.00 | 0.00 | 74 | 1018.5 |
| 20260503011558 | 41 | 336 | 0.0 | 1.0 | 0.00 | 0.00 | 0.00 | 71 | 1018.4 |
| 20260503010052 | 41 | 336 | 0.0 | 0.0 | 0.00 | 0.00 | 0.00 | 68 | 1018.3 |
| 20260503004543 | 42 | 336 | 0.0 | 2.0 | 0.00 | 0.00 | 0.00 | 65 | 1018.3 |
| 20260503003057 | 43 | 336 | 1.0 | 4.0 | 0.00 | 0.00 | 0.00 | 65 | 1018.2 |
| 20260503001543 | 43 | 337 | 0.0 | 3.0 | 0.00 | 0.00 | 0.00 | 62 | 1018.1 |
| 20260503000059 | 44 | 336 | 1.0 | 4.0 | 0.00 | 0.00 | 0.00 | 60 | 1018.1 |
| 20260502234545 | 44 | 339 | 3.0 | 8.0 | 0.00 | 0.00 | 0.00 | 58 | 1018.0 |
| 20260502233042 | 44 | 321 | 5.0 | 9.0 | 0.00 | 0.00 | 0.00 | 58 | 1017.9 |
| 20260502231544 | 44 | 317 | 3.0 | 6.0 | 0.00 | 0.00 | 0.00 | 59 | 1017.9 |
| 20260502230041 | 44 | 348 | 2.0 | 8.0 | 0.00 | 0.00 | 0.00 | 58 | 1018.1 |
| 20260502224539 | 44 | 333 | 3.0 | 9.0 | 0.00 | 0.00 | 0.00 | 58 | 1017.9 |
| 20260502223040 | 44 | 355 | 3.0 | 9.0 | 0.00 | 0.00 | 0.00 | 57 | 1017.9 |
| 20260502221539 | 45 | 360 | 4.0 | 9.0 | 0.00 | 0.00 | 0.00 | 58 | 1017.9 |
| 20260502220039 | 45 | 312 | 5.0 | 10.0 | 0.00 | 0.00 | 0.00 | 54 | 1017.9 |
| 20260502214537 | 45 | 335 | 3.0 | 8.0 | 0.00 | 0.00 | 0.00 | 56 | 1017.8 |
| 20260502213038 | 45 | 318 | 7.0 | 12.0 | 0.00 | 0.00 | 0.00 | 53 | 1017.7 |
| 20260502211546 | 45 | 316 | 4.0 | 10.0 | 0.00 | 0.00 | 0.00 | 56 | 1017.6 |
| 20260502210036 | 46 | 328 | 4.0 | 10.0 | 0.00 | 0.00 | 0.00 | 56 | 1017.6 |
| 20260502204536 | 45 | 347 | 6.0 | 13.0 | 0.00 | 0.00 | 0.00 | 54 | 1017.6 |
| 20260502203036 | 45 | 350 | 6.0 | 10.0 | 0.00 | 0.00 | 0.00 | 55 | 1017.7 |
| 20260502201534 | 45 | 355 | 6.0 | 12.0 | 0.00 | 0.00 | 0.00 | 60 | 1017.7 |
| 20260502200042 | 45 | 13 | 6.0 | 13.0 | 0.00 | 0.00 | 0.00 | 58 | 1017.8 |
| 20260502194534 | 46 | 5 | 4.0 | 12.0 | 0.00 | 0.00 | 0.00 | 55 | 1017.9 |
| 20260502193032 | 46 | 322 | 5.0 | 11.0 | 0.00 | 0.00 | 0.00 | 56 | 1018.0 |
| 20260502191530 | 45 | 24 | 6.0 | 13.0 | 0.00 | 0.00 | 0.00 | 58 | 1018.0 |
| 20260502190030 | 45 | 17 | 8.0 | 13.0 | 0.00 | 0.00 | 0.00 | 59 | 1018.2 |
| 20260502184533 | 45 | 342 | 7.0 | 13.0 | 0.00 | 0.00 | 0.00 | 58 | 1018.2 |
| 20260502183026 | 45 | 5 | 5.0 | 13.0 | 0.00 | 0.00 | 0.00 | 58 | 1018.3 |
| 20260502181525 | 45 | 318 | 3.0 | 12.0 | 0.00 | 0.00 | 0.00 | 59 | 1018.3 |
| 20260502163023 | 43 | 341 | 5.0 | 11.0 | 0.00 | 0.00 | 0.00 | 64 | 1018.8 |
| 20260502161516 | 43 | 342 | 5.0 | 13.0 | 0.00 | 0.00 | 0.00 | 63 | 1018.9 |
| 20260502151510 | 44 | 345 | 6.0 | 13.0 | 0.00 | 0.01 | 0.00 | 73 | 1018.6 |
| 20260502123055 | 37 | 335 | 4.0 | 10.0 | 0.00 | 0.04 | 0.00 | 81 | 1018.2 |
| 20260502121543 | 36 | 341 | 5.0 | 11.0 | 0.00 | 0.04 | 0.00 | 81 | 1018.1 |
| 20260502114539 | 35 | 330 | 3.0 | 6.0 | 0.00 | 0.05 | 0.00 | 82 | 1017.9 |
| 20260502113041 | 34 | 330 | 4.0 | 6.0 | 0.00 | 0.05 | 0.00 | 83 | 1017.9 |
| 20260502111547 | 33 | 325 | 3.0 | 5.0 | 0.00 | 0.05 | 0.00 | 84 | 1017.8 |
| 20260502110036 | 33 | 333 | 1.0 | 2.0 | 0.00 | 0.05 | 0.00 | 85 | 1017.7 |
| 20260502104535 | 32 | 333 | 1.0 | 3.0 | 0.00 | 0.05 | 0.00 | 84 | 1017.6 |
| 20260502103034 | 33 | 333 | 1.0 | 3.0 | 0.00 | 0.05 | 0.00 | 83 | 1017.5 |
| 20260502101534 | 33 | 333 | 2.0 | 4.0 | 0.00 | 0.05 | 0.00 | 83 | 1017.5 |
| 20260502091528 | 34 | 317 | 1.0 | 6.0 | 0.00 | 0.05 | 0.00 | 83 | 1017.5 |
| 20260502071517 | 35 | 305 | 2.0 | 4.0 | 0.00 | 0.05 | 0.00 | 84 | 1017.1 |
| 20260502070016 | 35 | 305 | 1.0 | 3.0 | 0.00 | 0.05 | 0.00 | 85 | 1017.3 |
| 20260502064517 | 36 | 305 | 0.0 | 2.0 | 0.00 | 0.05 | 0.00 | 84 | 1017.4 |
| 20260502063014 | 36 | 305 | 1.0 | 3.0 | 0.00 | 0.05 | 0.00 | 85 | 1017.3 |
| 20260502061509 | 36 | 304 | 1.0 | 5.0 | 0.00 | 0.05 | 0.00 | 87 | 1017.4 |
| 20260502060007 | 37 | 42 | 2.0 | 4.0 | 0.00 | 0.05 | 0.00 | 90 | 1017.5 |
| 20260502054504 | 36 | 42 | 1.0 | 3.0 | 0.00 | 0.05 | 0.00 | 93 | 1017.6 |
| 20260502053003 | 36 | 42 | 1.0 | 3.0 | 0.00 | 0.05 | 0.00 | 94 | 1017.6 |
| 20260502051501 | 36 | 42 | 0.0 | 2.0 | 0.00 | 0.05 | 0.00 | 94 | 1017.6 |